| time (UTC) | temp F | wind direction | speed knots | gust knots | rain 1hr in | rain 24hr in | rain mn in | humidity % | barometer mb |
| 20260506122115 | 56 | 354 | 7.8 | 9.6 | 0.00 | 0.00 | 0.00 | 84 | 1011.3 |
| 20260506121612 | 56 | 324 | 7.0 | 8.7 | 0.00 | 0.00 | 0.00 | 84 | 1011.4 |
| 20260506121109 | 57 | 318 | 8.7 | 9.6 | 0.00 | 0.00 | 0.00 | 84 | 1011.3 |
| 20260506120607 | 57 | 352 | 9.6 | 11.3 | 0.00 | 0.00 | 0.00 | 84 | 1011.1 |
| 20260506120104 | 57 | 347 | 6.1 | 7.0 | 0.00 | 0.00 | 0.00 | 84 | 1011.3 |
| 20260506115602 | 57 | 12 | 5.2 | 8.7 | 0.00 | 0.00 | 0.00 | 85 | 1011.1 |
| 20260506115100 | 57 | 348 | 2.6 | 5.2 | 0.00 | 0.00 | 0.00 | 85 | 1011.0 |
| 20260506114557 | 57 | 341 | 3.5 | 5.2 | 0.00 | 0.00 | 0.00 | 85 | 1010.8 |
| 20260506114055 | 57 | 357 | 9.6 | 11.3 | 0.00 | 0.00 | 0.00 | 85 | 1010.9 |
| 20260506113553 | 57 | 352 | 9.6 | 11.3 | 0.00 | 0.00 | 0.00 | 85 | 1010.5 |
| 20260506113050 | 57 | 327 | 6.1 | 7.0 | 0.00 | 0.00 | 0.00 | 85 | 1010.6 |
| 20260506112546 | 57 | 7 | 7.0 | 7.8 | 0.00 | 0.00 | 0.00 | 84 | 1010.6 |
| 20260506112044 | 57 | 6 | 5.2 | 8.7 | 0.00 | 0.00 | 0.00 | 84 | 1010.6 |
| 20260506111542 | 57 | 11 | 6.1 | 7.8 | 0.00 | 0.00 | 0.00 | 84 | 1010.5 |
| 20260506111038 | 57 | 348 | 4.3 | 6.1 | 0.00 | 0.00 | 0.00 | 85 | 1010.3 |
| 20260506110536 | 57 | 344 | 9.6 | 12.2 | 0.00 | 0.00 | 0.00 | 84 | 1010.3 |
| 20260506110033 | 58 | 348 | 11.3 | 12.2 | 0.00 | 0.00 | 0.00 | 85 | 1010.1 |
| 20260506105529 | 58 | 330 | 1.7 | 5.2 | 0.00 | 0.00 | 0.00 | 86 | 1010.2 |
| 20260506105027 | 58 | 354 | 4.3 | 6.1 | 0.00 | 0.00 | 0.00 | 86 | 1009.9 |
| 20260506104525 | 58 | 340 | 4.3 | 5.2 | 0.00 | 0.00 | 0.00 | 86 | 1009.9 |
| 20260506104022 | 58 | 317 | 4.3 | 5.2 | 0.00 | 0.00 | 0.00 | 86 | 1009.6 |
| 20260506103519 | 58 | 18 | 3.5 | 6.1 | 0.00 | 0.00 | 0.00 | 87 | 1009.6 |
| 20260506103016 | 58 | 329 | 0.9 | 2.6 | 0.00 | 0.00 | 0.00 | 88 | 1009.6 |
| 20260506102515 | 58 | 341 | 3.5 | 5.2 | 0.00 | 0.00 | 0.00 | 89 | 1009.7 |
| 20260506102011 | 58 | 333 | 0.0 | 0.0 | 0.00 | 0.00 | 0.00 | 89 | 1009.7 |
| 20260506101508 | 58 | 6 | 6.1 | 7.0 | 0.00 | 0.00 | 0.00 | 89 | 1009.3 |
| 20260506101005 | 57 | 350 | 0.9 | 1.7 | 0.00 | 0.00 | 0.00 | 90 | 1009.3 |
| 20260506100503 | 57 | 6 | 6.1 | 7.0 | 0.00 | 0.00 | 0.00 | 90 | 1009.3 |
| 20260506100001 | 57 | 344 | 2.6 | 6.1 | 0.00 | 0.00 | 0.00 | 91 | 1009.3 |
| 20260506095459 | 57 | 3 | 7.0 | 7.8 | 0.00 | 0.00 | 0.00 | 92 | 1009.1 |
| 20260506094955 | 57 | 356 | 6.1 | 6.1 | 0.00 | 0.00 | 0.00 | 92 | 1009.1 |
| 20260506094453 | 57 | 348 | 5.2 | 6.1 | 0.00 | 0.00 | 0.00 | 92 | 1009.0 |
| 20260506093951 | 58 | 316 | 7.8 | 8.7 | 0.00 | 0.00 | 0.00 | 92 | 1009.0 |
| 20260506093449 | 58 | 350 | 5.2 | 7.0 | 0.00 | 0.00 | 0.00 | 92 | 1008.9 |
| 20260506092946 | 58 | 331 | 7.0 | 8.7 | 0.00 | 0.00 | 0.00 | 91 | 1009.1 |
| 20260506092444 | 58 | 325 | 7.0 | 8.7 | 0.00 | 0.00 | 0.00 | 91 | 1008.9 |
| 20260506091940 | 58 | 347 | 3.5 | 5.2 | 0.00 | 0.00 | 0.00 | 91 | 1009.2 |
| 20260506091439 | 59 | 317 | 7.8 | 8.7 | 0.00 | 0.00 | 0.00 | 91 | 1009.0 |
| 20260506090936 | 59 | 348 | 1.7 | 2.6 | 0.00 | 0.00 | 0.00 | 90 | 1009.0 |
| 20260506090433 | 59 | 344 | 6.1 | 7.0 | 0.00 | 0.00 | 0.00 | 90 | 1008.9 |
| 20260506085930 | 59 | 337 | 3.5 | 7.0 | 0.00 | 0.00 | 0.00 | 90 | 1008.9 |
| 20260506085427 | 60 | 333 | 4.3 | 6.1 | 0.00 | 0.00 | 0.00 | 89 | 1009.0 |
| 20260506084923 | 60 | 315 | 0.0 | 0.0 | 0.00 | 0.00 | 0.00 | 87 | 1008.6 |
| 20260506084420 | 61 | 331 | 0.0 | 0.0 | 0.00 | 0.00 | 0.00 | 87 | 1008.7 |
| 20260506083916 | 61 | 351 | 1.7 | 2.6 | 0.00 | 0.00 | 0.00 | 86 | 1008.4 |
| 20260506083414 | 61 | 340 | 1.7 | 2.6 | 0.00 | 0.00 | 0.00 | 85 | 1008.4 |
| 20260506082911 | 62 | 346 | 1.7 | 3.5 | 0.00 | 0.00 | 0.00 | 84 | 1008.4 |
| 20260506082408 | 62 | 325 | 0.0 | 0.0 | 0.00 | 0.00 | 0.00 | 84 | 1008.3 |
| 20260506081903 | 62 | 351 | 0.0 | 0.0 | 0.00 | 0.00 | 0.00 | 84 | 1008.2 |
| 20260506081402 | 62 | 16 | 1.7 | 2.6 | 0.00 | 0.00 | 0.00 | 84 | 1008.4 |
| 20260506080859 | 62 | 1 | 0.9 | 2.6 | 0.00 | 0.00 | 0.00 | 84 | 1008.3 |
| 20260506080355 | 62 | 24 | 0.9 | 1.7 | 0.00 | 0.00 | 0.00 | 84 | 1008.3 |
| 20260506073339 | 63 | 1 | 5.2 | 6.1 | 0.00 | 0.00 | 0.00 | 84 | 1008.5 |
| 20260506072836 | 63 | 342 | 3.5 | 5.2 | 0.00 | 0.00 | 0.00 | 84 | 1008.4 |
| 20260506072334 | 63 | 23 | 3.5 | 6.1 | 0.00 | 0.00 | 0.00 | 84 | 1008.5 |
| 20260506071831 | 63 | 341 | 5.2 | 7.0 | 0.00 | 0.00 | 0.00 | 84 | 1008.4 |
| 20260506071330 | 63 | 332 | 7.0 | 8.7 | 0.00 | 0.00 | 0.00 | 84 | 1008.4 |
| 20260506070826 | 63 | 353 | 1.7 | 5.2 | 0.00 | 0.00 | 0.00 | 84 | 1008.8 |
| 20260506070323 | 63 | 2 | 5.2 | 6.1 | 0.00 | 0.00 | 0.00 | 84 | 1009.0 |
| 20260506062300 | 64 | 5 | 1.7 | 2.6 | 0.00 | 0.00 | 0.00 | 83 | 1008.5 |
| 20260506061756 | 65 | 351 | 4.3 | 6.1 | 0.00 | 0.00 | 0.00 | 83 | 1008.3 |
| 20260506061253 | 65 | 348 | 3.5 | 6.1 | 0.00 | 0.00 | 0.00 | 83 | 1008.2 |
| 20260506060751 | 65 | 359 | 5.2 | 7.0 | 0.00 | 0.00 | 0.00 | 82 | 1008.2 |
| 20260506060249 | 65 | 11 | 6.1 | 7.8 | 0.00 | 0.00 | 0.00 | 82 | 1008.2 |
| 20260506051220 | 68 | 355 | 1.7 | 5.2 | 0.00 | 0.00 | 0.00 | 81 | 1008.2 |
| 20260506050719 | 69 | 345 | 5.2 | 6.1 | 0.00 | 0.00 | 0.00 | 80 | 1008.3 |
| 20260506050215 | 69 | 345 | 7.8 | 7.8 | 0.00 | 0.00 | 0.00 | 80 | 1007.9 |
| 20260506044707 | 69 | 341 | 3.5 | 6.1 | 0.00 | 0.00 | 0.00 | 80 | 1008.1 |
| 20260506044203 | 69 | 353 | 5.2 | 7.0 | 0.00 | 0.00 | 0.00 | 79 | 1007.9 |
| 20260506043701 | 70 | 342 | 6.1 | 7.0 | 0.00 | 0.00 | 0.00 | 79 | 1008.1 |
| 20260506043158 | 70 | 350 | 7.8 | 7.8 | 0.00 | 0.00 | 0.00 | 78 | 1007.7 |
| 20260506042657 | 70 | 334 | 7.0 | 7.8 | 0.00 | 0.00 | 0.00 | 78 | 1008.2 |
| 20260506042155 | 70 | 341 | 7.0 | 8.7 | 0.00 | 0.00 | 0.00 | 78 | 1007.9 |
| 20260506041653 | 71 | 7 | 7.0 | 8.7 | 0.00 | 0.00 | 0.00 | 77 | 1008.0 |
| 20260506041150 | 71 | 352 | 6.1 | 7.8 | 0.00 | 0.00 | 0.00 | 77 | 1007.7 |
| 20260506040647 | 71 | 15 | 6.1 | 7.8 | 0.00 | 0.00 | 0.00 | 77 | 1007.6 |
| 20260506040138 | 71 | 350 | 6.1 | 7.0 | 0.00 | 0.00 | 0.00 | 77 | 1007.8 |
| 20260506035636 | 72 | 318 | 3.5 | 6.1 | 0.00 | 0.00 | 0.00 | 76 | 1007.6 |
| 20260506035132 | 72 | 22 | 3.5 | 3.5 | 0.00 | 0.00 | 0.00 | 76 | 1007.6 |
| 20260506034629 | 72 | 343 | 1.7 | 3.5 | 0.00 | 0.00 | 0.00 | 76 | 1007.3 |
| 20260506034126 | 72 | 11 | 5.2 | 6.1 | 0.00 | 0.00 | 0.00 | 75 | 1007.1 |
| 20260506033623 | 72 | 323 | 3.5 | 5.2 | 0.00 | 0.00 | 0.00 | 76 | 1007.4 |
| 20260506033120 | 72 | 5 | 5.2 | 5.2 | 0.00 | 0.00 | 0.00 | 76 | 1007.1 |
| 20260506032618 | 72 | 351 | 4.3 | 5.2 | 0.00 | 0.00 | 0.00 | 76 | 1007.1 |
| 20260506032114 | 73 | 11 | 6.1 | 7.0 | 0.00 | 0.00 | 0.00 | 76 | 1007.2 |
| 20260506031611 | 73 | 10 | 5.2 | 6.1 | 0.00 | 0.00 | 0.00 | 76 | 1007.4 |
| 20260506031108 | 73 | 313 | 4.3 | 5.2 | 0.00 | 0.00 | 0.00 | 76 | 1007.4 |
| 20260506030607 | 73 | 320 | 5.2 | 6.1 | 0.00 | 0.00 | 0.00 | 75 | 1007.1 |
| 20260506030104 | 74 | 320 | 5.2 | 8.7 | 0.00 | 0.00 | 0.00 | 76 | 1007.1 |
| 20260506025601 | 75 | 316 | 6.1 | 7.0 | 0.00 | 0.00 | 0.00 | 75 | 1007.0 |
| 20260506025056 | 75 | 325 | 6.1 | 7.0 | 0.00 | 0.00 | 0.00 | 75 | 1006.5 |
| 20260506024554 | 77 | 314 | 6.1 | 7.8 | 0.00 | 0.00 | 0.00 | 78 | 1006.8 |
| 20260506024050 | 78 | 223 | 0.0 | 0.0 | 0.00 | 0.00 | 0.00 | 84 | 1006.4 |
| 20260506023546 | 78 | 232 | 0.0 | 0.0 | 0.00 | 0.00 | 0.00 | 85 | 1006.1 |
| 20260506023044 | 78 | 222 | 0.0 | 0.0 | 0.00 | 0.00 | 0.00 | 85 | 1006.0 |
| 20260506022541 | 78 | 199 | 0.0 | 0.0 | 0.00 | 0.00 | 0.00 | 85 | 1005.5 |
| 20260506022039 | 78 | 220 | 0.0 | 0.0 | 0.00 | 0.00 | 0.00 | 85 | 1005.4 |
| 20260506021536 | 78 | 189 | 0.0 | 0.0 | 0.00 | 0.00 | 0.00 | 84 | 1005.5 |
| 20260506021033 | 78 | 200 | 0.0 | 0.0 | 0.00 | 0.00 | 0.00 | 84 | 1005.2 |
| 20260506020531 | 78 | 198 | 0.0 | 0.0 | 0.00 | 0.00 | 0.00 | 84 | 1005.3 |
| 20260506020028 | 78 | 185 | 0.0 | 0.0 | 0.00 | 0.00 | 0.00 | 84 | 1005.0 |
| 20260506015525 | 78 | 184 | 0.0 | 0.0 | 0.00 | 0.00 | 0.00 | 84 | 1005.0 |
| 20260506015022 | 78 | 188 | 0.0 | 0.0 | 0.00 | 0.00 | 0.00 | 84 | 1005.0 |
| 20260506014519 | 78 | 198 | 0.0 | 0.0 | 0.00 | 0.00 | 0.00 | 84 | 1005.1 |
| 20260506014015 | 78 | 233 | 0.0 | 0.0 | 0.00 | 0.00 | 0.00 | 83 | 1005.1 |
| 20260506013513 | 78 | 235 | 0.0 | 0.0 | 0.00 | 0.00 | 0.00 | 83 | 1004.9 |
| 20260506013010 | 78 | 357 | 0.0 | 0.0 | 0.00 | 0.00 | 0.00 | 83 | 1004.7 |
| 20260506012506 | 79 | 206 | 0.0 | 0.0 | 0.00 | 0.00 | 0.00 | 83 | 1004.8 |
| 20260506012003 | 79 | 206 | 0.0 | 0.0 | 0.00 | 0.00 | 0.00 | 82 | 1004.4 |
| 20260506011501 | 79 | 142 | 3.5 | 3.5 | 0.00 | 0.00 | 0.00 | 82 | 1004.6 |
| 20260506010957 | 79 | 151 | 3.5 | 5.2 | 0.00 | 0.00 | 0.00 | 82 | 1004.2 |
| 20260506010456 | 79 | 167 | 0.0 | 0.0 | 0.00 | 0.00 | 0.00 | 82 | 1003.9 |
| 20260506005951 | 79 | 162 | 0.0 | 0.0 | 0.00 | 0.00 | 0.00 | 82 | 1004.1 |
| 20260506005449 | 79 | 208 | 4.3 | 7.8 | 0.00 | 0.00 | 0.00 | 82 | 1004.1 |
| 20260506004944 | 79 | 163 | 0.0 | 0.0 | 0.00 | 0.00 | 0.00 | 82 | 1004.1 |
| 20260506004443 | 80 | 162 | 2.6 | 5.2 | 0.00 | 0.00 | 0.00 | 81 | 1004.2 |
| 20260506003938 | 80 | 204 | 1.7 | 7.8 | 0.00 | 0.00 | 0.00 | 81 | 1004.3 |
| 20260506003435 | 80 | 144 | 5.2 | 6.1 | 0.00 | 0.00 | 0.00 | 81 | 1004.2 |
| 20260506002932 | 80 | 202 | 0.0 | 0.0 | 0.00 | 0.00 | 0.00 | 81 | 1004.2 |
| 20260506002428 | 81 | 190 | 1.7 | 7.8 | 0.00 | 0.00 | 0.00 | 80 | 1004.0 |
| 20260506001923 | 81 | 163 | 5.2 | 7.0 | 0.00 | 0.00 | 0.00 | 80 | 1004.1 |
| 20260506001421 | 81 | 160 | 2.6 | 3.5 | 0.00 | 0.00 | 0.00 | 80 | 1003.9 |
| 20260506000918 | 81 | 156 | 2.6 | 5.2 | 0.00 | 0.00 | 0.00 | 80 | 1003.8 |
| 20260506000416 | 81 | 167 | 3.5 | 5.2 | 0.00 | 0.00 | 0.00 | 80 | 1004.0 |
| 20260505235912 | 81 | 163 | 0.0 | 1.7 | 0.00 | 0.00 | 0.00 | 80 | 1003.9 |
| 20260505235410 | 81 | 170 | 0.9 | 3.5 | 0.00 | 0.00 | 0.00 | 80 | 1004.2 |
| 20260505234907 | 81 | 174 | 4.3 | 7.0 | 0.00 | 0.00 | 0.00 | 80 | 1003.9 |
| 20260505234404 | 81 | 171 | 5.2 | 7.0 | 0.00 | 0.00 | 0.00 | 79 | 1004.0 |
| 20260505233901 | 81 | 156 | 3.5 | 6.1 | 0.00 | 0.00 | 0.00 | 79 | 1004.2 |
| 20260505233359 | 82 | 207 | 7.8 | 9.6 | 0.00 | 0.00 | 0.00 | 79 | 1004.0 |
| 20260505232856 | 82 | 156 | 4.3 | 6.1 | 0.00 | 0.00 | 0.00 | 78 | 1003.8 |
| 20260505232354 | 82 | 192 | 4.3 | 6.1 | 0.00 | 0.00 | 0.00 | 78 | 1003.8 |
| 20260505231850 | 82 | 185 | 5.2 | 6.1 | 0.00 | 0.00 | 0.00 | 78 | 1003.8 |
| 20260505231348 | 83 | 158 | 2.6 | 7.8 | 0.00 | 0.00 | 0.00 | 78 | 1004.0 |
| 20260505230846 | 83 | 158 | 3.5 | 6.1 | 0.00 | 0.00 | 0.00 | 77 | 1003.7 |
| 20260505230343 | 83 | 153 | 7.0 | 11.3 | 0.00 | 0.00 | 0.00 | 77 | 1003.5 |
| 20260505225839 | 83 | 140 | 4.3 | 6.1 | 0.00 | 0.00 | 0.00 | 77 | 1003.6 |
| 20260505225337 | 83 | 193 | 0.0 | 0.0 | 0.00 | 0.00 | 0.00 | 77 | 1003.5 |
| 20260505224831 | 84 | 185 | 5.2 | 6.1 | 0.00 | 0.00 | 0.00 | 77 | 1003.5 |
| 20260505224330 | 84 | 178 | 2.6 | 2.6 | 0.00 | 0.00 | 0.00 | 76 | 1003.4 |
| 20260505223826 | 85 | 159 | 0.0 | 0.0 | 0.00 | 0.00 | 0.00 | 75 | 1003.5 |
| 20260505223323 | 85 | 187 | 4.3 | 5.2 | 0.00 | 0.00 | 0.00 | 74 | 1003.3 |
| 20260505222819 | 85 | 198 | 3.5 | 5.2 | 0.00 | 0.00 | 0.00 | 73 | 1003.7 |
| 20260505222315 | 85 | 176 | 2.6 | 5.2 | 0.00 | 0.00 | 0.00 | 73 | 1003.7 |
| 20260505221813 | 85 | 197 | 4.3 | 7.0 | 0.00 | 0.00 | 0.00 | 73 | 1003.6 |
| 20260505221309 | 85 | 196 | 3.5 | 5.2 | 0.00 | 0.00 | 0.00 | 74 | 1003.5 |
| 20260505220806 | 85 | 194 | 5.2 | 7.8 | 0.00 | 0.00 | 0.00 | 73 | 1003.4 |
| 20260505220303 | 86 | 157 | 7.0 | 7.8 | 0.00 | 0.00 | 0.00 | 72 | 1003.6 |
| 20260505215802 | 86 | 186 | 4.3 | 5.2 | 0.00 | 0.00 | 0.00 | 71 | 1003.7 |
| 20260505215259 | 86 | 185 | 0.9 | 2.6 | 0.00 | 0.00 | 0.00 | 72 | 1003.6 |
| 20260505214756 | 87 | 175 | 7.0 | 7.8 | 0.00 | 0.00 | 0.00 | 71 | 1003.7 |
| 20260505214254 | 87 | 188 | 3.5 | 5.2 | 0.00 | 0.00 | 0.00 | 71 | 1003.4 |
| 20260505213751 | 86 | 195 | 7.0 | 7.8 | 0.00 | 0.00 | 0.00 | 71 | 1003.4 |
| 20260505213249 | 86 | 173 | 5.2 | 7.0 | 0.00 | 0.00 | 0.00 | 71 | 1003.7 |
| 20260505212744 | 86 | 179 | 5.2 | 7.0 | 0.00 | 0.00 | 0.00 | 71 | 1003.6 |
| 20260505212242 | 87 | 186 | 5.2 | 7.8 | 0.00 | 0.00 | 0.00 | 69 | 1003.6 |
| 20260505211738 | 87 | 190 | 4.3 | 6.1 | 0.00 | 0.00 | 0.00 | 71 | 1003.8 |
| 20260505211236 | 87 | 160 | 3.5 | 5.2 | 0.00 | 0.00 | 0.00 | 70 | 1003.8 |
| 20260505210732 | 86 | 193 | 3.5 | 5.2 | 0.00 | 0.00 | 0.00 | 72 | 1003.9 |
| 20260505210229 | 86 | 228 | 5.2 | 7.8 | 0.00 | 0.00 | 0.00 | 71 | 1004.0 |
| 20260505205726 | 86 | 181 | 6.1 | 8.7 | 0.00 | 0.00 | 0.00 | 71 | 1003.9 |
| 20260505205224 | 86 | 177 | 7.8 | 11.3 | 0.00 | 0.00 | 0.00 | 71 | 1003.7 |
| 20260505204720 | 86 | 174 | 1.7 | 2.6 | 0.00 | 0.00 | 0.00 | 71 | 1003.8 |
| 20260505204219 | 86 | 194 | 7.8 | 9.6 | 0.00 | 0.00 | 0.00 | 70 | 1004.3 |
| 20260505203715 | 87 | 197 | 5.2 | 6.1 | 0.00 | 0.00 | 0.00 | 70 | 1004.1 |
| 20260505203212 | 86 | 217 | 4.3 | 7.8 | 0.00 | 0.00 | 0.00 | 73 | 1004.3 |
| 20260505202708 | 86 | 193 | 8.7 | 12.2 | 0.00 | 0.00 | 0.00 | 71 | 1004.3 |
| 20260505202204 | 86 | 195 | 4.3 | 7.0 | 0.00 | 0.00 | 0.00 | 72 | 1004.3 |
| 20260505201701 | 86 | 213 | 4.3 | 6.1 | 0.00 | 0.00 | 0.00 | 73 | 1004.1 |
| 20260505201159 | 85 | 222 | 6.1 | 9.6 | 0.00 | 0.00 | 0.00 | 71 | 1004.4 |
| 20260505200657 | 85 | 184 | 7.0 | 9.6 | 0.00 | 0.00 | 0.00 | 74 | 1004.2 |
| 20260505200153 | 85 | 240 | 1.7 | 3.5 | 0.00 | 0.00 | 0.00 | 73 | 1004.4 |
| 20260505195649 | 85 | 198 | 5.2 | 7.0 | 0.00 | 0.00 | 0.00 | 72 | 1004.3 |
| 20260505195147 | 84 | 208 | 7.8 | 8.7 | 0.00 | 0.00 | 0.00 | 73 | 1004.4 |
| 20260505194644 | 84 | 220 | 7.8 | 9.6 | 0.00 | 0.00 | 0.00 | 73 | 1004.5 |
| 20260505194140 | 84 | 190 | 5.2 | 5.2 | 0.00 | 0.00 | 0.00 | 74 | 1004.6 |
| 20260505193636 | 84 | 203 | 4.3 | 5.2 | 0.00 | 0.00 | 0.00 | 73 | 1004.4 |
| 20260505193134 | 84 | 236 | 5.2 | 6.1 | 0.00 | 0.00 | 0.00 | 73 | 1004.5 |
| 20260505192632 | 84 | 199 | 6.1 | 7.0 | 0.00 | 0.00 | 0.00 | 74 | 1004.5 |
| 20260505192129 | 83 | 237 | 7.8 | 9.6 | 0.00 | 0.00 | 0.00 | 72 | 1004.7 |
| 20260505191628 | 84 | 205 | 9.6 | 12.2 | 0.00 | 0.00 | 0.00 | 73 | 1004.7 |
| 20260505191125 | 83 | 190 | 4.3 | 5.2 | 0.00 | 0.00 | 0.00 | 75 | 1004.7 |
| 20260505190621 | 83 | 206 | 7.0 | 8.7 | 0.00 | 0.00 | 0.00 | 75 | 1004.6 |
| 20260505190116 | 83 | 224 | 7.8 | 9.6 | 0.00 | 0.00 | 0.00 | 73 | 1004.8 |
| 20260505185613 | 83 | 168 | 5.2 | 7.0 | 0.00 | 0.00 | 0.00 | 74 | 1004.8 |
| 20260505185109 | 83 | 196 | 5.2 | 7.8 | 0.00 | 0.00 | 0.00 | 74 | 1004.9 |
| 20260505184606 | 83 | 199 | 5.2 | 7.0 | 0.00 | 0.00 | 0.00 | 74 | 1004.8 |
| 20260505184103 | 82 | 227 | 5.2 | 6.1 | 0.00 | 0.00 | 0.00 | 75 | 1005.0 |
| 20260505183559 | 82 | 182 | 7.0 | 9.6 | 0.00 | 0.00 | 0.00 | 75 | 1005.0 |
| 20260505183057 | 82 | 218 | 7.8 | 9.6 | 0.00 | 0.00 | 0.00 | 74 | 1005.0 |
| 20260505182553 | 82 | 224 | 5.2 | 6.1 | 0.00 | 0.00 | 0.00 | 75 | 1005.3 |
| 20260505182050 | 81 | 198 | 6.1 | 7.8 | 0.00 | 0.00 | 0.00 | 75 | 1005.3 |
| 20260505181546 | 82 | 211 | 7.8 | 9.6 | 0.00 | 0.00 | 0.00 | 76 | 1005.3 |
| 20260505181044 | 82 | 209 | 7.0 | 8.7 | 0.00 | 0.00 | 0.00 | 76 | 1005.3 |
| 20260505180539 | 81 | 223 | 5.2 | 7.0 | 0.00 | 0.00 | 0.00 | 76 | 1005.1 |
| 20260505180038 | 81 | 162 | 8.7 | 13.0 | 0.00 | 0.00 | 0.00 | 76 | 1005.4 |
| 20260505175537 | 81 | 191 | 6.1 | 7.0 | 0.00 | 0.00 | 0.00 | 77 | 1005.2 |
| 20260505175035 | 80 | 202 | 7.8 | 13.0 | 0.00 | 0.00 | 0.00 | 78 | 1005.1 |
| 20260505174532 | 79 | 202 | 9.6 | 12.2 | 0.00 | 0.00 | 0.00 | 78 | 1005.3 |
| 20260505174028 | 80 | 209 | 7.8 | 11.3 | 0.00 | 0.00 | 0.00 | 78 | 1005.3 |
| 20260505173525 | 80 | 198 | 4.3 | 6.1 | 0.00 | 0.00 | 0.00 | 79 | 1005.0 |
| 20260505173022 | 79 | 214 | 5.2 | 9.6 | 0.00 | 0.00 | 0.00 | 78 | 1005.0 |
| 20260505172520 | 80 | 245 | 4.3 | 6.1 | 0.00 | 0.00 | 0.00 | 78 | 1005.2 |
| 20260505172015 | 79 | 165 | 8.7 | 9.6 | 0.00 | 0.00 | 0.00 | 78 | 1004.9 |
| 20260505171510 | 79 | 176 | 7.8 | 9.6 | 0.00 | 0.00 | 0.00 | 81 | 1004.9 |
| 20260505171008 | 78 | 190 | 7.0 | 9.6 | 0.00 | 0.00 | 0.00 | 80 | 1005.2 |
| 20260505170505 | 78 | 175 | 9.6 | 12.2 | 0.00 | 0.00 | 0.00 | 81 | 1005.2 |
| 20260505170000 | 78 | 214 | 7.8 | 9.6 | 0.00 | 0.00 | 0.00 | 81 | 1005.2 |
| 20260505165456 | 78 | 183 | 7.0 | 8.7 | 0.00 | 0.00 | 0.00 | 82 | 1005.1 |
| 20260505164952 | 77 | 195 | 8.7 | 12.2 | 0.00 | 0.00 | 0.00 | 82 | 1004.9 |
| 20260505164448 | 78 | 200 | 12.2 | 14.8 | 0.00 | 0.00 | 0.00 | 81 | 1004.9 |
| 20260505163946 | 78 | 205 | 7.0 | 8.7 | 0.00 | 0.00 | 0.00 | 82 | 1005.0 |
| 20260505163445 | 77 | 238 | 9.6 | 13.9 | 0.00 | 0.00 | 0.00 | 81 | 1005.0 |
| 20260505162944 | 77 | 214 | 7.8 | 8.7 | 0.00 | 0.00 | 0.00 | 82 | 1005.3 |
| 20260505162439 | 77 | 194 | 10.4 | 13.9 | 0.00 | 0.00 | 0.00 | 82 | 1005.5 |
| 20260505161936 | 77 | 184 | 12.2 | 13.9 | 0.00 | 0.00 | 0.00 | 82 | 1005.2 |
| 20260505161433 | 77 | 191 | 7.8 | 8.7 | 0.00 | 0.00 | 0.00 | 82 | 1005.0 |
| 20260505160930 | 77 | 187 | 4.3 | 6.1 | 0.00 | 0.00 | 0.00 | 82 | 1005.3 |
| 20260505160429 | 76 | 155 | 5.2 | 7.0 | 0.00 | 0.00 | 0.00 | 83 | 1005.0 |
| 20260505152904 | 74 | 186 | 9.6 | 12.2 | 0.00 | 0.00 | 0.00 | 85 | 1005.1 |
| 20260505152356 | 74 | 207 | 6.1 | 7.8 | 0.00 | 0.00 | 0.00 | 85 | 1005.1 |
| 20260505151855 | 75 | 217 | 9.6 | 13.9 | 0.00 | 0.00 | 0.00 | 85 | 1005.3 |
| 20260505151352 | 74 | 235 | 7.0 | 9.6 | 0.00 | 0.00 | 0.00 | 85 | 1005.4 |
| 20260505150849 | 74 | 244 | 6.1 | 7.8 | 0.00 | 0.00 | 0.00 | 85 | 1005.7 |
| 20260505150347 | 75 | 161 | 13.0 | 15.6 | 0.00 | 0.00 | 0.00 | 84 | 1005.4 |
| 20260505140311 | 73 | 196 | 11.3 | 13.9 | 0.00 | 0.00 | 0.00 | 87 | 1004.8 |
| 20260505130229 | 70 | 215 | 8.7 | 11.3 | 0.00 | 0.00 | 0.00 | 91 | 1004.6 |
| 20260505124719 | 70 | 218 | 7.8 | 14.8 | 0.00 | 0.00 | 0.00 | 92 | 1004.2 |
| 20260505124216 | 70 | 196 | 7.0 | 8.7 | 0.00 | 0.00 | 0.00 | 92 | 1004.1 |
| 20260505123711 | 69 | 200 | 6.1 | 8.7 | 0.00 | 0.00 | 0.00 | 92 | 1004.3 |
| 20260505123208 | 69 | 190 | 6.1 | 7.8 | 0.00 | 0.00 | 0.00 | 92 | 1004.4 |
| 20260505122704 | 69 | 196 | 7.8 | 8.7 | 0.00 | 0.00 | 0.00 | 92 | 1004.2 |